Вернуться в каталог

STARLINK-34977

АктивенСвязьSSO
NORAD 65245·PAYLOAD·🇺🇸 United States

Запущен Aug 18, 2025 с Vandenberg Space Force Base

Loading…

Ближайшие Пролёты (ближайшие 24 часа)

TLE

СвежийSource: CelesTrak SupGP

Эпоха: Sep 15, 2026, 02:33 UTC

1 65245C 25179L   26258.10673611  .00016351  00000+0  50746-3 0  2582
2 65245  97.2836 297.4749 0001035  84.4550 293.5685 15.33437900    10

Отслеживайте STARLINK-34977 в реальном времени с AllMySat

Download on the App Store